Overview Statistics Trail Chart Weather Telemetry Raw packets
 

This is the latest recevied weather packets stored in our database for station/object N3TJJ-2. If no packets are shown the sender has not sent any weather packets the latest 10 day(s).

<< 41 42 43 44 45 46 47 >>
Time Temp. Humidity Pressure Rain* Wind** Luminosity Snow
1788277742 25.56° C 62% 1017.3 hPa 0 mm - - -
1788277368 25.56° C 63% 1017.3 hPa 0 mm - - -
1788277073 25.56° C 63% 1017.4 hPa 0 mm - - -
1788276660 25.56° C 63% 1017.4 hPa 0 mm - - -
1788276316 25.56° C 62% 1017.4 hPa 0 mm - - -
1788275927 25° C 58% 1017.4 hPa 0 mm - - -
1788275634 24.44° C 57% 1017.3 hPa 0 mm - - -
1788274851 24.44° C 57% 1017.3 hPa 0 mm - - -
1788274521 25° C 61% 1017.4 hPa 0 mm - - -
1788274133 25° C 62% 1017.4 hPa 0 mm - - -
1788273768 25.56° C 65% 1017.6 hPa 0 mm - - -
1788273470 25.56° C 65% 1017.5 hPa 0 mm - - -
1788273054 25.56° C 64% 1017.4 hPa 0 mm - - -
1788272740 25.56° C 63% 1017.4 hPa 0 mm - - -
1788272348 25° C 63% 1017.5 hPa 0 mm - - -
1788272100 25° C 63% 1017.4 hPa 0 mm - - -
1788271872 25° C 59% 1017.5 hPa 0 mm - - -
1788271248 24.44° C 54% 1017.5 hPa 0 mm - - -
1788270954 23.89° C 48% 1017.5 hPa 0 mm - - -
1788270537 23.33° C 45% 1017.4 hPa 0 mm - - -
1788270465 23.33° C 39% 1017.5 hPa 0 mm - - -
1788269824 23.33° C 34% 1017.7 hPa 0 mm - - -
1788269448 23.33° C 31% 1017.7 hPa 0 mm - - -
1788269093 22.78° C 30% 1017.8 hPa 0 mm - - -
1788268744 22.78° C 30% 1017.8 hPa 0 mm - - -

* Rain latest hour (hover to see other rain measurements)
** Current wind speed in m/s (hover to see current wind gust speed)